CMS-01

Last updated on Sun Jun 21 2026 00:03:08 GMT+0000 (Coordinated Universal Time)

1 47256U 20099A 26171.40840537 -.00000169 00000+0 00000+0 0 9997 2 47256 0.0154 78.5042 0003485 201.8183 218.3086 1.00270928 20239
UTC large
Height (km)
Speed (km/s)
/
Latitude / Longitude
Inclination (degrees)
Orbital Period (minutes)
Azimuth
Elevation
Range (km)
Doppler Factor

Next 0 passes for location: London (51.5072 / 0.1276)

No passes found over London.
CMS-01